When you browse on this site, cookies collect data to enhance your experience and personalize the content and advertising you see.
Visit our Privacy Policy to learn more. By continuing to use the site, you agree to this use of cookies and data.
  • In Österreich
  • Länderverzeichnis
  • Für 7 Tage
  • Wassertemperatur
  • Satellitenkarten
  • Wetterkarte
  • News
  • Widgets
  • user-avatar
    Anmelden

    Stündliche Wetter Kavkuly

    Heute, 16 Februar, Samstag

    Zeit Temperatur Niederschläge Wind Luftdruck Luftfeuchtigkeit
    00:00 -2°C° 0 mm 3 m/S 754 mmHg 92%
    01:00 -1°C° 0 mm 3 m/S 754 mmHg 93%
    02:00 -1°C° 0 mm 3 m/S 754 mmHg 93%
    03:00 -1°C° 0 mm 3 m/S 754 mmHg 94%
    04:00 -1°C° 0 mm 3 m/S 753 mmHg 94%
    05:00 -1°C° 0 mm 3 m/S 753 mmHg 94%
    06:00 0°C° 0 mm 3 m/S 753 mmHg 94%
    07:00 0°C° 0 mm 3 m/S 753 mmHg 95%
    08:00 0°C° 0 mm 3 m/S 754 mmHg 95%
    09:00 0°C° 0 mm 4 m/S 754 mmHg 93%
    10:00 0°C° 0 mm 4 m/S 753 mmHg 91%
    11:00 +1°C° 0 mm 5 m/S 753 mmHg 89%
    12:00 +1°C° 0 mm 5 m/S 753 mmHg 89%
    13:00 +1°C° 0 mm 4 m/S 753 mmHg 89%
    14:00 +1°C° 0 mm 4 m/S 753 mmHg 88%
    15:00 +1°C° 0 mm 4 m/S 753 mmHg 90%
    16:00 +1°C° 0 mm 3 m/S 753 mmHg 91%
    17:00 +1°C° 0 mm 3 m/S 753 mmHg 93%
    18:00 +1°C° 0 mm 3 m/S 753 mmHg 92%
    19:00 +1°C° 0 mm 3 m/S 753 mmHg 92%
    20:00 0°C° 0 mm 3 m/S 752 mmHg 92%
    21:00 0°C° 0 mm 3 m/S 752 mmHg 92%
    22:00 0°C° 0 mm 3 m/S 752 mmHg 92%
    23:00 0°C° 0 mm 3 m/S 752 mmHg 92%

    Morgen, 17 Februar, Sonntag

    Zeit Temperatur Niederschläge Wind Luftdruck Luftfeuchtigkeit
    00:00 0°C° 0 mm 3 m/S 752 mmHg 91%
    01:00 0°C° 0 mm 3 m/S 752 mmHg 91%
    02:00 0°C° 0 mm 3 m/S 752 mmHg 91%
    03:00 0°C° 0 mm 3 m/S 751 mmHg 90%
    04:00 -1°C° 0 mm 4 m/S 751 mmHg 90%
    05:00 -1°C° 0 mm 4 m/S 750 mmHg 90%
    06:00 -1°C° 0 mm 4 m/S 750 mmHg 89%
    07:00 0°C° 0 mm 4 m/S 750 mmHg 88%
    08:00 0°C° 0 mm 4 m/S 750 mmHg 88%
    09:00 +1°C° 0 mm 4 m/S 750 mmHg 83%
    10:00 +2°C° 0 mm 5 m/S 750 mmHg 79%
    11:00 +5°C° 0 mm 5 m/S 749 mmHg 74%
    12:00 +6°C° 0 mm 5 m/S 749 mmHg 71%
    13:00 +7°C° 0 mm 5 m/S 749 mmHg 67%
    14:00 +7°C° 0 mm 6 m/S 748 mmHg 64%
    15:00 +7°C° 0 mm 5 m/S 748 mmHg 66%
    16:00 +6°C° 0 mm 5 m/S 748 mmHg 68%
    17:00 +6°C° 0 mm 4 m/S 748 mmHg 70%
    18:00 +5°C° 0 mm 4 m/S 748 mmHg 72%
    19:00 +4°C° 0 mm 4 m/S 748 mmHg 74%
    20:00 +3°C° 0 mm 4 m/S 748 mmHg 77%
    21:00 +3°C° 0 mm 4 m/S 748 mmHg 79%
    22:00 +1°C° 0 mm 4 m/S 749 mmHg 82%
    23:00 +1°C° 0 mm 4 m/S 749 mmHg 84%

    übermorgen, 18 Februar, Montag

    Zeit Temperatur Niederschläge Wind Luftdruck Luftfeuchtigkeit
    00:00 +1°C° 0 mm 4 m/S 749 mmHg 86%
    01:00 0°C° 0 mm 4 m/S 749 mmHg 88%
    02:00 +1°C° 0 mm 3 m/S 749 mmHg 91%
    03:00 +1°C° 0 mm 3 m/S 749 mmHg 91%
    04:00 +1°C° 0 mm 3 m/S 749 mmHg 92%
    05:00 0°C° 0 mm 3 m/S 749 mmHg 92%
    06:00 0°C° 0 mm 3 m/S 750 mmHg 92%
    07:00 +1°C° 0 mm 3 m/S 750 mmHg 92%
    08:00 +1°C° 0 mm 3 m/S 750 mmHg 92%
    09:00 +2°C° 0 mm 3 m/S 751 mmHg 89%
    10:00 +2°C° 0 mm 3 m/S 751 mmHg 85%
    11:00 +3°C° 0 mm 4 m/S 751 mmHg 82%
    12:00 +3°C° 0 mm 4 m/S 751 mmHg 78%
    13:00 +4°C° 0 mm 4 m/S 751 mmHg 74%
    14:00 +4°C° 0 mm 4 m/S 751 mmHg 70%
    15:00 +3°C° 0 mm 3 m/S 751 mmHg 71%
    16:00 +3°C° 0 mm 3 m/S 752 mmHg 73%
    17:00 +3°C° 0 mm 2 m/S 752 mmHg 74%
    18:00 +2°C° 0 mm 2 m/S 752 mmHg 76%
    19:00 +2°C° 0 mm 2 m/S 752 mmHg 78%
    20:00 +1°C° 0 mm 2 m/S 753 mmHg 80%
    21:00 -1°C° 0 mm 2 m/S 753 mmHg 80%
    22:00 -1°C° 0 mm 2 m/S 753 mmHg 79%
    23:00 -1°C° 0 mm 2 m/S 754 mmHg 79%

    19 Februar, Dienstag

    Zeit Temperatur Niederschläge Wind Luftdruck Luftfeuchtigkeit
    00:00 -2°C° 0 mm 2 m/S 754 mmHg 78%
    01:00 -2°C° 0 mm 2 m/S 754 mmHg 78%
    02:00 0°C° 0 mm 1 m/S 754 mmHg 77%
    03:00 0°C° 0 mm 1 m/S 754 mmHg 77%
    04:00 0°C° 0 mm 1 m/S 754 mmHg 77%
    05:00 0°C° 0 mm 1 m/S 754 mmHg 76%
    06:00 -2°C° 0 mm 2 m/S 754 mmHg 76%
    07:00 -2°C° 0 mm 2 m/S 754 mmHg 75%
    08:00 -2°C° 0 mm 2 m/S 754 mmHg 75%
    09:00 -1°C° 0 mm 2 m/S 754 mmHg 68%
    10:00 0°C° 0 mm 3 m/S 754 mmHg 62%
    11:00 +1°C° 0 mm 3 m/S 754 mmHg 55%
    12:00 +1°C° 0 mm 3 m/S 754 mmHg 53%
    13:00 +2°C° 0 mm 3 m/S 754 mmHg 51%
    14:00 +3°C° 0 mm 3 m/S 753 mmHg 48%
    15:00 +2°C° 0 mm 3 m/S 753 mmHg 53%
    16:00 +1°C° 0 mm 3 m/S 752 mmHg 58%
    17:00 +1°C° 0 mm 3 m/S 752 mmHg 62%
    18:00 0°C° 0 mm 3 m/S 751 mmHg 64%
    19:00 0°C° 0 mm 3 m/S 751 mmHg 66%
    20:00 -2°C° 0 mm 4 m/S 751 mmHg 68%
    21:00 -2°C° 0 mm 4 m/S 751 mmHg 72%
    22:00 -2°C° 0 mm 4 m/S 750 mmHg 76%
    23:00 -2°C° 0 mm 4 m/S 750 mmHg 80%

    20 Februar, Mittwoch

    Zeit Temperatur Niederschläge Wind Luftdruck Luftfeuchtigkeit
    00:00 -2°C° 0 mm 4 m/S 750 mmHg 84%
    01:00 -2°C° 0 mm 4 m/S 749 mmHg 88%
    02:00 -2°C° 0 mm 4 m/S 749 mmHg 91%
    03:00 -1°C° 0 mm 4 m/S 749 mmHg 93%
    04:00 -1°C° 0 mm 4 m/S 748 mmHg 94%
    05:00 +1°C° 0 mm 3 m/S 748 mmHg 95%
    06:00 +1°C° 0 mm 3 m/S 748 mmHg 95%
    07:00 +1°C° 0 mm 3 m/S 748 mmHg 96%
    08:00 +1°C° 0 mm 3 m/S 748 mmHg 96%
    09:00 +1°C° 0 mm 4 m/S 748 mmHg 89%
    10:00 +4°C° 0 mm 4 m/S 748 mmHg 82%
    11:00 +5°C° 0 mm 5 m/S 748 mmHg 75%
    12:00 +5°C° 0 mm 5 m/S 748 mmHg 73%
    13:00 +6°C° 0 mm 5 m/S 748 mmHg 71%
    14:00 +7°C° 0 mm 6 m/S 748 mmHg 70%
    15:00 +6°C° 0 mm 5 m/S 748 mmHg 71%
    16:00 +5°C° 0 mm 5 m/S 748 mmHg 73%
    17:00 +4°C° 0 mm 4 m/S 748 mmHg 75%
    18:00 +4°C° 0 mm 4 m/S 748 mmHg 78%
    19:00 +3°C° 0 mm 3 m/S 748 mmHg 81%
    20:00 +3°C° 0 mm 2 m/S 749 mmHg 84%
    21:00 +3°C° 0 mm 3 m/S 749 mmHg 82%
    22:00 +3°C° 0 mm 3 m/S 749 mmHg 81%
    23:00 +3°C° 0 mm 4 m/S 749 mmHg 79%

    21 Februar, Donnerstag

    Zeit Temperatur Niederschläge Wind Luftdruck Luftfeuchtigkeit
    00:00 +3°C° 0 mm 4 m/S 749 mmHg 80%
    01:00 +3°C° 0 mm 4 m/S 749 mmHg 81%
    02:00 +3°C° 0 mm 4 m/S 749 mmHg 81%
    03:00 +3°C° 0 mm 4 m/S 748 mmHg 82%
    04:00 +1°C° 0 mm 5 m/S 748 mmHg 82%
    05:00 +1°C° 0 mm 5 m/S 748 mmHg 83%
    06:00 +1°C° 0 mm 5 m/S 748 mmHg 83%
    07:00 +1°C° 0 mm 5 m/S 749 mmHg 83%
    08:00 +1°C° 0 mm 5 m/S 749 mmHg 84%
    09:00 +2°C° 0 mm 5 m/S 749 mmHg 78%
    10:00 +3°C° 0 mm 6 m/S 749 mmHg 73%
    11:00 +4°C° 0 mm 6 m/S 749 mmHg 68%
    12:00 +4°C° 0 mm 6 m/S 749 mmHg 66%
    13:00 +5°C° 0 mm 6 m/S 749 mmHg 65%
    14:00 +5°C° 0 mm 6 m/S 748 mmHg 63%
    15:00 +6°C° 0 mm 5 m/S 748 mmHg 67%
    16:00 +6°C° 0 mm 4 m/S 748 mmHg 71%
    17:00 +5°C° 0 mm 3 m/S 748 mmHg 74%
    18:00 +5°C° 0 mm 3 m/S 747 mmHg 77%
    19:00 +5°C° 0 mm 3 m/S 747 mmHg 79%
    20:00 +4°C° 0 mm 4 m/S 747 mmHg 81%
    21:00 +4°C° 0.1 mm 3 m/S 747 mmHg 83%
    22:00 +4°C° 0.1 mm 3 m/S 747 mmHg 84%
    23:00 +4°C° 0.1 mm 3 m/S 746 mmHg 85%
    Mehr zeigen